San Luis Valley Regional Bergman Field
KALS : now visible

Airfield :











YOU CAN JOIN US ON...

 
LOGIN :

Register | Disclaimer

   EN    FR    IT 

 









Legend :    VFR   Marginal VFR   IFR   Intensive IFR   Very Intensive IFR
Visi :
Ceiling :
>= 8 km
>= 3000ft
5 to 8 km
1000 to 3000 ft
1500m to 5 km
500 to 1000 ft
800 to 1500m
200 to 500 ft
< 800m
< 200 ft
Symbols :   Thunderstorms  Fog  Heavy snow  Heavy precipitations  Wind > 20 kt






- Airport Elevation : 7539 ft


KALS - San Luis Valley Regional Bergman Field

CURRENT METAR :
  • 181052Z AUTO 07003KT 10SM CLR M20/M22 A3030 RMK AO2 SLP329 T12001222

EXPIRED METARs :
  • 180952Z AUTO 00000KT 10SM CLR M19/M22 A3032 RMK AO2 SLP329 T11891217

TAF KALS
Valid from the 18 at 06:00 until the 19 at 06:00 UTC


180531Z 1806/1906 VRB06KT P6SM FEW200
FM181600 VRB04KT P6SM BKN200
FM182100 18007KT P6SM BKN200



MET'MAP, your aeronautical weather chart ! - Copyright ORBIFLY December 2007 - Disclaimer

ORBIFLY MET'MAP TEAM :

Programming & Development : Alexandra Zaïnal
Concept & original design : Baudouin d'Aumeries
Assistance for programming : Marc-Olivier Méhu
Technical & hardware support : Manuel Goepfert

Contact : metmap@orbifly.com




SOURCES & CREDITS :

   NOAA       Earth
Advisory